Home > Weather > Crailsheim > Past weeks

Flag for Germany Weather for the Past 2 Weeks in Crailsheim, Baden-Württemberg, Germany

Now
41 °F

Passing clouds.


Feels Like: 36 °F
Forecast: 39 / 51 °F
Wind: 8 mph from Southeast

Location: Niederstetten

Current Time: Feb 7, 2016 at 6:05:07 AM

Latest Report: Feb 7, 2016 at 5:20 AM


Visibility: N/A

Pressure: 29.68 "Hg

Humidity: 66%

Dew point: 30 °F

Location of CrailsheimLocation

Historic Weather in Crailsheim — Graph

°F

Crailsheim Temperature Yesterday

Maximum temperature yesterday: 54 °F (at 2:20 PM)
Minimum temperature yesterday: 36 °F (at 4:20 AM)
Average temperature yesterday: 43 °F

High & Low Weather Summary for the Past Weeks

 TemperatureHumidityPressure
High54 °F (Jan 26, 12:20 PM)100% (Jan 23, 4:20 AM)30.60 "Hg (Jan 23, 4:20 AM)
Low30 °F (Jan 23, 4:20 AM)54% (Jan 27, 2:20 PM)29.68 "Hg (Feb 7, 4:20 AM)
Average42 °F85%30.19 "Hg
* Reported Jan 23 4:20 AM — Feb 7 4:20 AM, Crailsheim, Weather by CustomWeather, © 2016

Note: Actual official high and low records may vary slightly from our data, if they occured in-between our weather recording intervals... More about our weather records

Advertising

Crailsheim Weather History for the Previous 24 Hours

 ConditionsComfort  
Time TempWeatherWind HumidityBarometerVisibility
4:20 AM
Sun, Feb 7
41 °FPassing clouds.9 mph66%29.68 "HgN/A
3:20 AM41 °FPassing clouds.10 mph66%29.71 "HgN/A
2:20 AM41 °FPassing clouds.10 mph70%29.71 "HgN/A
1:20 AM41 °FPassing clouds.8 mph76%29.74 "HgN/A
12:20 AM41 °FPassing clouds.8 mph81%29.74 "HgN/A
11:20 PM
Sat, Feb 6
41 °FPassing clouds.10 mph81%29.77 "HgN/A
10:20 PM41 °FPassing clouds.8 mph81%29.80 "HgN/A
9:20 PM41 °FPassing clouds.8 mph81%29.83 "HgN/A
8:20 PM43 °FPassing clouds.9 mph81%29.83 "HgN/A
7:20 PM43 °FPassing clouds.9 mph81%29.86 "HgN/A
6:20 PM46 °FPassing clouds.7 mph66%29.89 "HgN/A
5:20 PM50 °FScattered clouds.6 mph58%29.89 "HgN/A
4:20 PM50 °FPartly sunny.7 mph62%29.92 "HgN/A
3:20 PM54 °FPartly sunny.3 mph58%29.95 "HgN/A
2:20 PM54 °FPartly sunny.9 mph54%29.98 "HgN/A
1:20 PM52 °FPartly sunny.7 mph62%30.01 "HgN/A
12:20 PM48 °FPartly sunny.10 mph66%30.01 "HgN/A
11:20 AM46 °FPartly sunny.7 mph71%30.04 "HgN/A
10:20 AM43 °FPartly sunny.9 mph76%30.07 "HgN/A
9:20 AM39 °FPartly sunny.9 mph81%30.07 "HgN/A
8:20 AM37 °FPartly sunny.10 mph87%30.07 "HgN/A
7:20 AM37 °FPassing clouds.10 mph87%30.07 "HgN/A
6:20 AM37 °FPassing clouds.12 mph87%30.07 "HgN/A
Weather by CustomWeather, © 2016

See weather overviewHow to use our weather pages